Wind_Speed
42 42 42 41 41 41 41 41 41 41 41 41 40 40 39 39 39 38 37 37 36 35 35 35 35 34 34 33 33 33 33 33 33 33 33 33 33 33 33 34 34 34 34
42 42 42 41 41 41 41 40 41 41 41 40 40 40 39 39 39 38 38 37 37 36 36 36 35 35 34 34 33 33 33 34 33 33 33 33 33 33 34 34 34 34 35
43 42 42 42 41 40 40 40 41 40 40 40 40 40 39 39 39 39 38 38 37 36 37 36 35 34 34 34 33 33 33 33 33 33 33 34 34 34 33 34 35 35 36
43 42 42 42 41 41 40 40 40 40 40 41 41 40 39 39 39 39 39 39 38 37 36 36 36 35 34 33 33 33 33 33 33 34 34 35 35 35 35 34 35 35 36
41 41 41 41 41 41 41 40 40 40 40 40 41 41 39 38 39 39 39 38 37 37 37 36 36 36 35 34 33 33 33 33 33 34 35 35 36 36 36 35 35 36 37
41 41 41 41 41 41 40 40 40 39 39 39 40 41 40 38 38 39 38 38 37 37 37 37 37 36 36 35 34 34 34 34 34 34 34 35 36 36 37 36 36 37 38
41 41 41 41 40 40 40 40 40 40 39 39 39 40 40 40 39 39 39 38 38 38 37 36 36 36 36 35 35 35 34 34 34 35 35 36 36 36 36 37 38 38 39
40 41 41 40 40 39 40 40 41 41 40 40 40 40 40 40 40 39 39 38 39 38 37 36 36 35 36 36 36 35 34 35 35 35 36 36 36 36 37 38 39 40 40
40 40 40 40 39 39 40 40 40 41 40 40 40 40 40 39 38 38 38 38 38 37 37 35 35 36 36 36 36 35 35 35 35 36 36 36 36 36 37 39 40 41 42
39 41 41 40 40 40 40 41 41 41 41 40 40 40 40 40 39 38 37 37 37 37 37 35 35 36 36 35 35 35 35 35 35 36 36 36 36 37 38 39 41 42 43
37 39 39 40 40 40 41 41 41 41 42 41 40 39 40 40 38 38 38 38 37 37 37 36 35 35 36 36 35 35 35 35 36 36 37 37 37 38 39 40 41 43 44
34 36 37 38 39 40 41 41 41 41 41 41 40 40 40 40 39 38 38 37 37 37 37 36 35 34 35 35 35 35 36 36 36 37 37 37 37 39 40 41 42 43 44
33 34 36 36 37 38 40 41 40 40 40 40 40 40 40 39 39 38 38 37 36 36 37 36 35 34 35 35 35 35 36 37 37 37 37 37 38 40 41 41 42 43 45
31 32 34 35 36 36 38 39 40 40 39 39 39 39 39 39 38 38 38 38 38 37 37 36 36 35 34 34 35 35 36 36 36 37 37 38 39 40 41 42 43 44 45
30 31 33 35 35 35 36 37 38 39 39 39 39 39 39 39 38 38 38 39 39 39 37 36 36 35 35 35 35 35 35 35 36 37 37 38 40 41 42 43 43 44 46
29 30 31 33 35 35 35 35 36 37 38 39 39 39 39 39 39 39 39 40 40 39 39 38 37 36 35 36 36 36 36 36 37 37 38 39 40 41 42 43 44 45 45
28 29 30 32 34 35 35 35 35 36 37 38 39 40 40 39 39 38 39 39 39 39 38 38 37 36 36 36 36 36 36 37 37 38 39 39 40 41 41 42 43 44 44
27 28 29 31 32 34 35 35 36 36 36 37 37 38 38 38 38 38 37 38 38 38 38 38 37 37 37 37 36 36 36 37 38 38 39 39 40 40 41 41 41 42 43
28 28 29 30 31 33 34 35 35 35 36 37 36 37 37 37 37 38 37 37 37 37 37 37 37 37 37 37 37 36 36 37 37 38 39 39 39 39 40 40 41 41 41
29 28 29 29 30 31 33 33 34 34 35 35 36 36 36 36 36 37 36 36 36 36 36 36 36 36 37 37 37 36 36 36 37 37 38 38 38 39 39 40 40 39 39
29 29 29 30 30 30 31 32 32 33 34 35 35 35 35 35 35 35 36 36 36 36 36 36 36 36 37 37 37 36 36 36 36 36 37 37 37 38 39 39 38 38 38
29 30 30 31 31 30 31 31 32 33 33 34 34 34 34 34 34 34 34 35 35 35 35 35 36 36 36 36 36 36 36 36 35 36 36 36 36 37 37 37 36 37 37
29 30 30 30 31 31 32 32 32 32 32 33 33 33 34 33 33 33 34 34 34 34 34 34 34 34 34 34 35 35 35 35 35 35 35 35 35 35 35 35 35 35 33
27 29 30 30 30 31 31 32 32 31 31 32 32 33 33 33 33 33 33 34 34 35 35 34 34 34 33 33 33 34 34 33 33 33 33 34 34 34 33 32 32 31 29
27 28 29 30 30 31 31 31 32 32 31 31 32 32 32 32 32 32 32 32 33 33 34 34 33 33 33 33 32 32 32 32 33 33 33 32 32 31 30 29 29 27 26
25 27 29 30 31 31 31 31 31 31 31 31 31 31 31 31 31 31 32 32 32 32 32 32 32 32 32 32 32 31 31 32 32 32 31 30 29 28 27 27 26 25 24
Wind_Direction
232 233 232 232 232 232 233 234 235 235 236 237 237 238 240 243 245 247 249 252 255 257 259 262 264 266 267 269 271 272 273 275 277 278 279 280 281 284 286 287 288 289 290
231 232 231 231 232 233 233 234 235 235 236 237 237 238 241 243 245 247 250 252 255 257 259 262 263 264 267 268 271 272 273 274 276 277 278 279 281 284 285 287 288 289 291
230 230 231 231 233 233 233 233 235 236 236 237 237 238 241 244 245 248 250 252 254 257 259 260 262 264 266 268 270 271 272 273 275 277 278 279 280 282 284 286 287 289 290
231 230 231 231 233 233 234 234 235 236 237 237 238 239 240 243 245 247 249 251 252 255 257 259 260 263 265 267 269 271 273 273 275 277 278 279 281 282 283 285 286 288 291
230 231 231 231 233 233 234 234 235 235 236 238 239 240 241 244 245 246 248 250 252 253 256 258 261 263 265 266 268 271 274 275 276 277 279 280 282 283 284 284 286 289 291
229 231 231 231 232 232 233 234 234 235 236 238 240 241 243 244 245 247 248 251 253 254 256 258 262 262 264 267 268 271 273 275 277 278 281 282 283 284 285 286 287 289 292
229 230 231 232 232 232 233 233 234 234 236 239 240 242 245 245 247 248 250 251 252 254 257 259 261 263 264 267 269 271 274 276 277 279 282 283 284 286 287 288 290 291 293
230 231 232 233 233 232 232 233 234 235 236 239 241 244 246 247 249 250 250 251 253 255 257 259 261 263 264 266 269 270 273 275 276 279 282 283 286 287 288 290 291 293 294
231 233 233 233 234 233 233 233 233 234 236 239 242 243 245 246 249 250 250 251 254 254 255 259 261 263 265 267 269 270 272 274 277 279 281 284 286 287 289 291 293 294 296
233 233 233 234 235 234 233 233 234 234 235 238 241 243 244 246 248 249 250 252 254 254 255 258 260 263 266 268 269 271 272 275 277 280 282 284 286 288 290 292 294 296 297
235 236 236 235 236 236 235 235 235 236 237 238 240 242 244 246 247 249 249 251 253 254 254 258 260 262 265 267 268 270 272 274 277 280 282 284 286 288 290 292 294 296 298
237 237 236 236 236 237 237 236 236 238 238 239 240 241 244 246 247 248 248 250 253 255 255 257 259 261 264 266 269 271 272 274 278 281 282 284 286 289 291 293 295 297 299
237 236 236 235 236 236 236 236 237 238 239 239 240 242 244 246 247 247 248 249 252 254 255 256 259 261 264 265 268 271 272 275 278 281 282 284 287 289 291 293 296 298 300
238 238 236 236 236 236 236 236 236 238 238 239 240 241 243 245 246 247 248 249 251 253 255 256 258 261 264 266 269 272 274 276 278 281 282 285 287 289 291 294 296 298 300
239 238 238 236 235 235 236 236 237 238 238 239 240 241 243 245 246 248 249 250 252 253 255 257 259 261 263 266 269 271 274 276 278 281 283 285 288 289 292 294 296 298 301
239 238 237 235 234 234 235 236 238 239 239 239 240 242 243 245 247 248 249 251 252 254 255 257 259 261 263 267 269 271 273 276 278 281 283 286 288 291 293 295 298 299 301
239 239 237 235 234 234 235 236 239 240 240 240 241 243 244 245 247 248 249 250 252 253 254 255 258 261 264 267 269 271 273 276 278 281 283 286 288 291 293 296 298 300 302
240 239 237 235 235 235 235 236 239 241 240 241 241 241 242 245 247 248 249 250 252 253 254 256 259 261 264 267 269 271 273 276 279 282 284 286 289 291 294 296 298 300 302
240 240 239 238 237 237 238 239 240 242 242 241 242 242 243 244 247 248 248 250 251 252 254 257 259 262 266 268 270 272 274 277 279 282 284 287 290 291 294 296 298 300 301
240 240 241 240 240 240 240 241 241 242 242 242 242 242 242 244 246 248 248 248 250 251 254 256 259 263 266 269 270 272 275 277 279 282 285 288 290 292 294 296 298 299 301
242 242 242 241 242 241 241 241 241 242 243 242 241 241 241 243 245 246 247 248 249 251 253 256 259 262 265 268 270 273 276 278 280 281 284 288 290 292 295 296 298 299 301
244 243 243 243 241 240 240 240 242 242 242 242 241 241 241 242 244 245 247 249 250 251 254 256 259 261 265 268 270 273 275 277 280 282 284 287 290 293 295 296 298 299 301
246 245 243 242 242 241 241 242 242 242 242 241 240 240 241 242 244 246 247 249 251 252 254 256 259 262 265 268 270 272 275 277 280 283 285 288 290 293 294 296 298 300 301
246 244 242 241 240 241 241 241 240 239 240 241 240 240 241 243 245 246 248 250 251 253 255 257 259 262 265 267 270 273 275 277 279 282 285 288 290 292 294 295 297 300 301
245 243 241 239 239 240 240 240 239 238 239 240 241 241 242 243 245 247 249 251 252 255 257 259 261 263 266 268 271 273 274 276 279 281 284 287 289 291 292 294 298 299 300
244 242 240 239 239 239 239 239 239 239 239 240 242 243 244 246 247 248 250 252 255 257 259 261 263 263 265 268 270 272 274 276 278 281 282 284 287 289 291 295 297 298 300
Height
5710 5714 5719 5723 5728 5732 5737 5741 5745 5749 5753 5757 5761 5765 5768 5772 5775 5777 5780 5782 5784 5785 5786 5787 5788 5788 5789 5789 5789 5788 5788 5787 5787 5786 5785 5784 5782 5780 5779 5777 5775 5773 5771
5701 5706 5710 5715 5720 5724 5728 5733 5737 5741 5744 5748 5752 5757 5760 5763 5766 5769 5772 5774 5776 5778 5779 5779 5780 5781 5781 5781 5781 5781 5781 5780 5779 5779 5778 5777 5776 5774 5772 5770 5767 5765 5763
5693 5698 5702 5707 5712 5716 5721 5725 5729 5732 5736 5740 5744 5748 5751 5755 5758 5761 5763 5766 5768 5769 5771 5772 5772 5773 5773 5773 5773 5773 5773 5772 5772 5771 5770 5769 5768 5767 5765 5763 5760 5758 5755
5685 5690 5694 5699 5703 5708 5712 5716 5720 5724 5728 5732 5736 5739 5743 5746 5749 5752 5755 5757 5759 5760 5762 5763 5764 5765 5765 5766 5766 5766 5765 5765 5764 5763 5762 5761 5760 5759 5758 5756 5753 5750 5747
5677 5682 5686 5691 5695 5699 5704 5708 5712 5716 5720 5724 5727 5731 5734 5738 5741 5743 5746 5748 5750 5752 5754 5755 5756 5757 5757 5758 5758 5758 5757 5757 5756 5756 5755 5753 5752 5750 5749 5748 5745 5742 5739
5668 5673 5678 5682 5687 5691 5696 5700 5704 5709 5712 5716 5719 5723 5726 5729 5732 5735 5738 5740 5742 5744 5746 5747 5748 5748 5749 5750 5750 5750 5750 5749 5749 5748 5747 5745 5744 5742 5740 5739 5737 5734 5731
5660 5665 5669 5674 5679 5683 5688 5692 5696 5701 5704 5708 5712 5715 5718 5721 5724 5727 5729 5732 5734 5736 5737 5738 5739 5740 5741 5741 5741 5742 5742 5741 5741 5740 5739 5737 5735 5733 5731 5729 5727 5725 5723
5652 5656 5661 5666 5670 5675 5679 5683 5688 5692 5696 5700 5703 5707 5710 5713 5716 5718 5721 5723 5725 5727 5729 5730 5731 5732 5732 5733 5733 5734 5733 5733 5733 5732 5730 5729 5727 5724 5722 5720 5718 5715 5713
5644 5648 5653 5657 5662 5666 5670 5674 5679 5683 5688 5691 5695 5698 5701 5704 5707 5709 5712 5714 5716 5718 5720 5721 5723 5723 5724 5724 5725 5725 5725 5725 5724 5723 5722 5720 5718 5716 5713 5710 5707 5705 5702
5635 5640 5644 5649 5653 5657 5662 5666 5670 5674 5678 5682 5686 5689 5692 5695 5698 5701 5703 5706 5708 5710 5711 5713 5714 5715 5716 5716 5717 5717 5716 5716 5715 5714 5713 5711 5709 5707 5704 5701 5698 5694 5691
5628 5632 5636 5640 5644 5648 5653 5657 5661 5665 5669 5673 5677 5680 5684 5687 5689 5692 5695 5697 5699 5701 5702 5704 5705 5706 5707 5707 5708 5708 5708 5707 5707 5705 5704 5702 5700 5698 5695 5691 5688 5684 5680
5620 5624 5627 5631 5635 5640 5644 5648 5652 5656 5660 5664 5668 5671 5675 5678 5680 5683 5686 5688 5690 5692 5694 5695 5697 5698 5698 5698 5699 5699 5699 5699 5698 5696 5695 5693 5690 5688 5685 5682 5678 5674 5670
5612 5615 5619 5623 5626 5630 5634 5639 5643 5647 5651 5655 5658 5662 5665 5669 5671 5674 5676 5679 5681 5683 5685 5686 5688 5689 5689 5690 5690 5690 5690 5689 5689 5687 5685 5683 5681 5678 5675 5672 5668 5664 5659
5604 5607 5611 5614 5618 5621 5625 5629 5634 5638 5641 5645 5649 5653 5656 5659 5662 5665 5667 5670 5672 5674 5676 5678 5679 5680 5680 5681 5681 5681 5681 5680 5679 5678 5676 5674 5671 5669 5666 5662 5658 5654 5649
5596 5599 5602 5606 5609 5613 5617 5621 5625 5629 5632 5636 5640 5644 5647 5650 5653 5655 5658 5660 5663 5665 5667 5668 5670 5671 5671 5672 5672 5672 5671 5671 5670 5668 5666 5664 5662 5659 5655 5652 5648 5644 5639
5589 5591 5594 5597 5601 5605 5609 5612 5616 5620 5623 5627 5631 5634 5638 5641 5643 5646 5648 5651 5653 5656 5658 5659 5660 5661 5662 5663 5662 5662 5662 5662 5660 5659 5657 5655 5652 5649 5645 5641 5637 5633 5628
5581 5584 5587 5590 5593 5597 5600 5604 5607 5611 5614 5618 5621 5625 5628 5631 5634 5636 5639 5642 5644 5646 5648 5649 5651 5652 5653 5653 5653 5653 5653 5652 5651 5649 5647 5645 5642 5639 5636 5632 5627 5622 5617
5574 5576 5579 5582 5585 5589 5592 5595 5599 5602 5605 5609 5612 5615 5618 5622 5624 5627 5629 5632 5634 5636 5638 5640 5641 5642 5643 5644 5644 5644 5643 5642 5641 5639 5638 5635 5632 5629 5626 5622 5618 5613 5608
5566 5569 5572 5575 5577 5580 5583 5587 5590 5593 5596 5599 5603 5606 5609 5612 5615 5617 5620 5622 5625 5627 5629 5631 5632 5633 5634 5634 5634 5634 5634 5633 5631 5629 5627 5625 5623 5619 5616 5613 5609 5604 5599
5559 5561 5564 5567 5569 5572 5575 5578 5581 5584 5587 5591 5594 5597 5600 5602 5605 5608 5610 5613 5615 5617 5619 5621 5622 5624 5624 5624 5624 5624 5624 5623 5622 5620 5618 5615 5613 5609 5606 5602 5599 5595 5590
5551 5553 5556 5559 5561 5564 5567 5570 5572 5576 5578 5581 5584 5588 5590 5593 5596 5598 5601 5603 5606 5608 5610 5612 5613 5614 5615 5615 5615 5614 5614 5613 5612 5610 5608 5606 5603 5600 5597 5593 5589 5585 5581
5543 5545 5547 5550 5553 5556 5559 5561 5564 5567 5569 5572 5576 5579 5582 5585 5587 5590 5592 5594 5596 5598 5600 5602 5603 5604 5605 5605 5605 5605 5604 5603 5602 5601 5599 5597 5594 5591 5588 5584 5580 5576 5572
5534 5536 5539 5542 5544 5547 5550 5553 5555 5558 5561 5563 5567 5570 5573 5576 5578 5581 5583 5585 5587 5590 5591 5593 5594 5595 5596 5596 5595 5595 5595 5594 5593 5591 5590 5588 5585 5582 5579 5575 5572 5568 5564
5526 5528 5531 5533 5536 5539 5541 5544 5547 5550 5552 5555 5558 5561 5564 5567 5570 5572 5575 5577 5579 5581 5582 5584 5585 5586 5586 5587 5587 5586 5585 5585 5584 5582 5581 5578 5576 5573 5570 5567 5564 5560 5556
5518 5520 5522 5525 5528 5530 5533 5536 5539 5541 5544 5547 5550 5553 5556 5559 5562 5564 5566 5568 5570 5572 5574 5575 5576 5577 5578 5578 5578 5577 5577 5576 5575 5574 5572 5570 5568 5565 5562 5559 5556 5553 5550
5510 5512 5515 5517 5520 5522 5525 5528 5531 5533 5536 5539 5542 5545 5548 5551 5553 5556 5558 5559 5562 5563 5564 5566 5567 5568 5568 5568 5569 5568 5568 5567 5566 5565 5564 5562 5560 5558 5555 5553 5550 5547 5544